When you browse on this site, cookies collect data to enhance your experience and personalize the content and advertising you see.
Visit our Privacy Policy to learn more. By continuing to use the site, you agree to this use of cookies and data.
  • In Lithuania
  • List of Countries
  • For 7 days
  • Water Temperature
  • Satellite Maps
  • Weather Map
  • Weather Widgets
  • user-avatar
    Login

    Hourly Weather Slava Truda

    Today, 23 March, Saturday

    Time Temperature Precipitation Wind Pressure Humidity
    00:00 +3°C° 0.9 mm 10 mps 757 mmHg 77%
    01:00 +4°C° 0.8 mm 8 mps 757 mmHg 77%
    02:00 +4°C° 0.8 mm 7 mps 756 mmHg 78%
    03:00 +4°C° 0 mm 6 mps 756 mmHg 75%
    04:00 +3°C° 0 mm 5 mps 756 mmHg 75%
    05:00 +2°C° 0 mm 5 mps 756 mmHg 75%
    06:00 +1°C° 0 mm 4 mps 757 mmHg 75%
    07:00 +2°C° 0 mm 5 mps 757 mmHg 69%
    08:00 +2°C° 0 mm 6 mps 757 mmHg 63%
    09:00 +3°C° 0 mm 6 mps 758 mmHg 56%
    10:00 +4°C° 0 mm 6 mps 757 mmHg 52%
    11:00 +4°C° 0 mm 6 mps 757 mmHg 48%
    12:00 +5°C° 0 mm 6 mps 757 mmHg 43%
    13:00 +5°C° 0 mm 6 mps 757 mmHg 42%
    14:00 +5°C° 0 mm 6 mps 757 mmHg 41%
    15:00 +7°C° 0 mm 6 mps 757 mmHg 40%
    16:00 +5°C° 0 mm 6 mps 757 mmHg 44%
    17:00 +6°C° 0 mm 5 mps 757 mmHg 48%
    18:00 +5°C° 0 mm 5 mps 758 mmHg 51%
    19:00 +4°C° 0 mm 4 mps 758 mmHg 58%
    20:00 +4°C° 0 mm 4 mps 758 mmHg 64%
    21:00 +3°C° 0 mm 4 mps 759 mmHg 70%
    22:00 +3°C° 0 mm 3 mps 759 mmHg 73%
    23:00 +3°C° 0 mm 3 mps 759 mmHg 76%

    Tomorrow, 24 March, Sunday

    Time Temperature Precipitation Wind Pressure Humidity
    00:00 +2°C° 0 mm 3 mps 759 mmHg 79%
    01:00 +2°C° 0.1 mm 3 mps 759 mmHg 80%
    02:00 +2°C° 0.1 mm 3 mps 759 mmHg 81%
    03:00 +2°C° 0.1 mm 3 mps 759 mmHg 81%
    04:00 +2°C° 0.1 mm 3 mps 760 mmHg 82%
    05:00 +2°C° 0.1 mm 3 mps 760 mmHg 82%
    06:00 +2°C° 0.1 mm 3 mps 760 mmHg 83%
    07:00 +1°C° 0 mm 4 mps 760 mmHg 81%
    08:00 +1°C° 0 mm 4 mps 760 mmHg 79%
    09:00 +1°C° 0 mm 4 mps 761 mmHg 76%
    10:00 +3°C° 0 mm 4 mps 761 mmHg 74%
    11:00 +3°C° 0 mm 4 mps 761 mmHg 71%
    12:00 +3°C° 0 mm 4 mps 761 mmHg 68%
    13:00 +4°C° 0.1 mm 4 mps 761 mmHg 66%
    14:00 +3°C° 0.1 mm 5 mps 761 mmHg 64%
    15:00 +5°C° 0.1 mm 5 mps 761 mmHg 61%
    16:00 +5°C° 0 mm 5 mps 761 mmHg 62%
    17:00 +3°C° 0 mm 5 mps 761 mmHg 63%
    18:00 +4°C° 0 mm 4 mps 761 mmHg 63%
    19:00 +4°C° 0 mm 4 mps 761 mmHg 65%
    20:00 +3°C° 0 mm 4 mps 762 mmHg 67%
    21:00 +3°C° 0 mm 3 mps 762 mmHg 69%
    22:00 +2°C° 0 mm 3 mps 762 mmHg 71%
    23:00 +2°C° 0 mm 3 mps 762 mmHg 73%

    Day after tomorrow, 25 March, Monday

    Time Temperature Precipitation Wind Pressure Humidity
    00:00 +2°C° 0 mm 3 mps 761 mmHg 75%
    01:00 +1°C° 0 mm 3 mps 761 mmHg 79%
    02:00 +1°C° 0 mm 3 mps 761 mmHg 83%
    03:00 0°C° 0 mm 4 mps 761 mmHg 87%
    04:00 0°C° 0 mm 4 mps 761 mmHg 87%
    05:00 0°C° 0 mm 4 mps 761 mmHg 88%
    06:00 0°C° 0 mm 4 mps 761 mmHg 89%
    07:00 +1°C° 0 mm 4 mps 761 mmHg 83%
    08:00 +3°C° 0 mm 4 mps 761 mmHg 78%
    09:00 +4°C° 0 mm 4 mps 761 mmHg 73%
    10:00 +7°C° 0 mm 3 mps 761 mmHg 67%
    11:00 +8°C° 0 mm 3 mps 761 mmHg 61%
    12:00 +10°C° 0 mm 3 mps 760 mmHg 55%
    13:00 +10°C° 0 mm 3 mps 760 mmHg 52%
    14:00 +10°C° 0 mm 3 mps 760 mmHg 50%
    15:00 +11°C° 0 mm 3 mps 760 mmHg 48%
    16:00 +10°C° 0 mm 2 mps 760 mmHg 50%
    17:00 +10°C° 0 mm 2 mps 760 mmHg 52%
    18:00 +11°C° 0 mm 1 mps 760 mmHg 54%
    19:00 +10°C° 0 mm 1 mps 760 mmHg 56%
    20:00 +9°C° 0 mm 1 mps 760 mmHg 59%
    21:00 +7°C° 0 mm 0 mps 761 mmHg 61%
    22:00 +7°C° 0 mm 0 mps 760 mmHg 63%
    23:00 +6°C° 0 mm 0 mps 760 mmHg 66%

    26 March, Tuesday

    Time Temperature Precipitation Wind Pressure Humidity
    00:00 +6°C° 0 mm 0 mps 760 mmHg 69%
    01:00 +7°C° 0 mm 1 mps 760 mmHg 71%
    02:00 +6°C° 0 mm 1 mps 760 mmHg 73%
    03:00 +6°C° 0 mm 1 mps 760 mmHg 75%
    04:00 +6°C° 0 mm 1 mps 761 mmHg 77%
    05:00 +4°C° 0 mm 2 mps 761 mmHg 80%
    06:00 +4°C° 0 mm 2 mps 761 mmHg 82%
    07:00 +4°C° 0 mm 3 mps 761 mmHg 76%
    08:00 +7°C° 0 mm 3 mps 761 mmHg 69%
    09:00 +8°C° 0 mm 3 mps 761 mmHg 63%
    10:00 +9°C° 0 mm 3 mps 761 mmHg 57%
    11:00 +11°C° 0 mm 3 mps 760 mmHg 51%
    12:00 +12°C° 0 mm 3 mps 760 mmHg 45%
    13:00 +13°C° 0 mm 3 mps 760 mmHg 44%
    14:00 +13°C° 0 mm 3 mps 759 mmHg 42%
    15:00 +14°C° 0 mm 3 mps 759 mmHg 41%
    16:00 +14°C° 0 mm 2 mps 759 mmHg 44%
    17:00 +14°C° 0 mm 2 mps 758 mmHg 47%
    18:00 +13°C° 0 mm 2 mps 758 mmHg 50%
    19:00 +12°C° 0 mm 2 mps 758 mmHg 53%
    20:00 +12°C° 0 mm 2 mps 758 mmHg 56%
    21:00 +10°C° 0 mm 2 mps 758 mmHg 58%
    22:00 +9°C° 0 mm 2 mps 758 mmHg 61%
    23:00 +8°C° 0 mm 2 mps 758 mmHg 63%

    27 March, Wednesday

    Time Temperature Precipitation Wind Pressure Humidity
    00:00 +8°C° 0 mm 2 mps 757 mmHg 65%
    01:00 +8°C° 0 mm 3 mps 757 mmHg 67%
    02:00 +7°C° 0 mm 3 mps 757 mmHg 69%
    03:00 +7°C° 0 mm 3 mps 757 mmHg 70%
    04:00 +7°C° 0 mm 3 mps 758 mmHg 74%
    05:00 +7°C° 0 mm 3 mps 758 mmHg 78%
    06:00 +6°C° 0 mm 2 mps 758 mmHg 82%
    07:00 +7°C° 0 mm 3 mps 759 mmHg 75%
    08:00 +6°C° 0 mm 5 mps 760 mmHg 69%
    09:00 +7°C° 0 mm 6 mps 760 mmHg 62%
    10:00 +7°C° 0 mm 5 mps 761 mmHg 53%
    11:00 +8°C° 0 mm 5 mps 761 mmHg 44%
    12:00 +8°C° 0 mm 5 mps 761 mmHg 35%
    13:00 +9°C° 0 mm 5 mps 761 mmHg 33%
    14:00 +10°C° 0 mm 4 mps 761 mmHg 30%
    15:00 +10°C° 0 mm 4 mps 761 mmHg 27%
    16:00 +10°C° 0 mm 4 mps 762 mmHg 29%
    17:00 +8°C° 0 mm 4 mps 762 mmHg 30%
    18:00 +9°C° 0 mm 3 mps 762 mmHg 32%
    19:00 +8°C° 0 mm 3 mps 763 mmHg 35%
    20:00 +7°C° 0 mm 3 mps 763 mmHg 39%
    21:00 +5°C° 0 mm 3 mps 763 mmHg 42%
    22:00 +4°C° 0 mm 3 mps 764 mmHg 47%
    23:00 +4°C° 0 mm 3 mps 764 mmHg 52%

    28 March, Thursday

    Time Temperature Precipitation Wind Pressure Humidity
    00:00 +3°C° 0 mm 3 mps 764 mmHg 57%
    01:00 +3°C° 0 mm 3 mps 764 mmHg 59%
    02:00 +4°C° 0 mm 2 mps 764 mmHg 61%
    03:00 +4°C° 0 mm 2 mps 764 mmHg 64%
    04:00 +3°C° 0 mm 2 mps 765 mmHg 66%
    05:00 +2°C° 0 mm 3 mps 765 mmHg 68%
    06:00 +1°C° 0 mm 3 mps 765 mmHg 70%
    07:00 +2°C° 0 mm 3 mps 766 mmHg 61%
    08:00 +3°C° 0 mm 3 mps 766 mmHg 52%
    09:00 +3°C° 0 mm 3 mps 766 mmHg 43%
    10:00 +4°C° 0 mm 4 mps 766 mmHg 40%
    11:00 +5°C° 0 mm 4 mps 766 mmHg 36%
    12:00 +6°C° 0 mm 4 mps 766 mmHg 33%
    13:00 +6°C° 0 mm 4 mps 766 mmHg 36%
    14:00 +7°C° 0 mm 4 mps 766 mmHg 38%
    15:00 +7°C° 0 mm 4 mps 766 mmHg 41%
    16:00 +7°C° 0.1 mm 4 mps 766 mmHg 44%
    17:00 +6°C° 0.1 mm 4 mps 766 mmHg 47%
    18:00 +7°C° 0.1 mm 3 mps 766 mmHg 50%
    19:00 +5°C° 0 mm 3 mps 767 mmHg 54%
    20:00 +4°C° 0 mm 3 mps 767 mmHg 57%
    21:00 +3°C° 0 mm 3 mps 768 mmHg 60%
    22:00 +4°C° 0 mm 2 mps 768 mmHg 62%
    23:00 +3°C° 0 mm 2 mps 768 mmHg 63%
    Show more